[TLELIST] Archives

 

[list_settings.list_name] Current TLEs

September 19th 2009 PST

HST 1 20580U 90037B 09260.14835346 +.00000324 +00000-0 +12053-4 0 04488 2 20580 028.4700 222.1051 0003488 179.1872 180.8744 15.00830012863682 ISS (ZARYA) 1 25544U 98067A 09261.50040509 .00008697 00000-0 63499-4 0 6331 2 25544 051.6378 187.7933 0009360 102.5110 241.6810 15.74172080620643 CXO 1 25867U 99040B 09261.70833333 +.00000101 +00000-0 +10000-3 0 03729 2 25867 065.8518 065.6078 7691873 275.5004 001.0162 00.37806419005361 ____________________________________________________________________ These 2-Line ...Continue Reading

[list_settings.list_name] Current TLEs

September 18th 2009 PST

HST 1 20580U 90037B 09259.08437116 +.00000307 +00000-0 +10743-4 0 04476 2 20580 028.4702 229.0485 0003477 167.4835 192.5878 15.00829594863522 ISS (ZARYA) 1 25544U 98067A 09259.87340920 +.00007169 +00000-0 +53204-4 0 06222 2 25544 051.6371 196.1499 0009356 097.8592 019.9809 15.74137060620397 CXO 1 25867U 99040B 09259.04166667 +.00000111 +00000-0 +10000-3 0 03712 2 25867 065.8354 065.7455 7687181 275.5020 357.9297 00.37807903005354 ____________________________________________________________________ These 2-Line ...Continue Reading

[list_settings.list_name] Current TLEs

September 17th 2009 PST

HST 1 20580U 90037B 09257.35539919 +.00000305 +00000-0 +10556-4 0 04467 2 20580 028.4704 240.3303 0003420 147.3255 212.7607 15.00829069863263 ISS (ZARYA) 1 25544U 98067A 09259.99572006 .00007320 00000-0 54227-4 0 6233 2 25544 051.6369 195.5207 0009332 097.5646 353.8664 15.74139546620418 CXO 1 25867U 99040B 09259.04166667 +.00000111 +00000-0 +10000-3 0 03712 2 25867 065.8354 065.7455 7687181 275.5020 357.9297 00.37807903005354 ____________________________________________________________________ These 2-Line ...Continue Reading

[list_settings.list_name] Current TLEs

September 16th 2009 PST

HST 1 20580U 90037B 09257.35539919 +.00000305 +00000-0 +10556-4 0 04467 2 20580 028.4704 240.3303 0003420 147.3255 212.7607 15.00829069863263 ISS (ZARYA) 1 25544U 98067A 09259.19071759 .00006796 00000-0 50693-4 0 6165 2 25544 051.6373 199.6564 0009351 094.6458 111.8484 15.74124493620286 CXO 1 25867U 99040B 09259.04166667 +.00000111 +00000-0 +10000-3 0 03712 2 25867 065.8354 065.7455 7687181 275.5020 357.9297 00.37807903005354 ____________________________________________________________________ These 2-Line ...Continue Reading

[list_settings.list_name] Current TLEs

September 15th 2009 PST

HST 1 20580U 90037B 09254.03044845 +.00000280 +00000-0 +86605-5 0 04458 2 20580 028.4709 262.0355 0003390 116.1193 243.9773 15.00828112862769 ISS (ZARYA) 1 25544U 98067A 09258.47467601 .00006590 00000-0 49317-4 0 6129 2 25544 051.6377 203.3343 0009382 092.4628 013.6064 15.74112929620179 CXO 1 25867U 99040B 09256.41666667 +.00000050 +00000-0 +10000-3 0 03706 2 25867 065.8332 065.8757 7678573 275.5188 000.5296 00.37798109005342 ____________________________________________________________________ These 2-Line ...Continue Reading

[list_settings.list_name] Current TLEs

September 14th 2009 PST

HST 1 20580U 90037B 09254.03044845 +.00000280 +00000-0 +86605-5 0 04458 2 20580 028.4709 262.0355 0003390 116.1193 243.9773 15.00828112862769 ISS (ZARYA) 1 25544U 98067A 09257.14313378 .00006379 00000-0 47920-4 0 6036 2 25544 051.6379 210.1735 0009351 086.7250 028.7041 15.74092822619961 CXO 1 25867U 99040B 09256.41666667 +.00000050 +00000-0 +10000-3 0 03706 2 25867 065.8332 065.8757 7678573 275.5188 000.5296 00.37798109005342 ____________________________________________________________________ These 2-Line ...Continue Reading

[list_settings.list_name] Current TLEs

September 13th 2009 PST

HST 1 20580U 90037B 09254.03044845 +.00000280 +00000-0 +86605-5 0 04458 2 20580 028.4709 262.0355 0003390 116.1193 243.9773 15.00828112862769 ISS (ZARYA) 1 25544U 98067A 09254.84953068 .00010583 00000-0 76616-4 0 5918 2 25544 051.6386 221.9514 0009274 078.5058 351.0891 15.74075588619609 CXO 1 25867U 99040B 09253.75000000 +.00000077 +00000-0 +10000-3 0 03690 2 25867 065.8245 065.9636 7674289 275.5726 357.4088 00.37800137005337 ____________________________________________________________________ These 2-Line ...Continue Reading

[list_settings.list_name] Current TLEs

September 12th 2009 PST

HST 1 20580U 90037B 09252.43446962 +.00000273 +00000-0 +81015-5 0 04447 2 20580 028.4711 272.4497 0003406 098.6253 261.4683 15.00827672862522 ISS (ZARYA) 1 25544U 98067A 09254.84953068 .00010583 00000-0 76616-4 0 5918 2 25544 051.6386 221.9514 0009274 078.5058 351.0891 15.74075588619609 CXO 1 25867U 99040B 09253.75000000 +.00000077 +00000-0 +10000-3 0 03690 2 25867 065.8245 065.9636 7674289 275.5726 357.4088 00.37800137005337 ____________________________________________________________________ These 2-Line ...Continue Reading

[list_settings.list_name] Current TLEs

September 11th 2009 PST

HST 1 20580U 90037B 09250.43949751 +.00000305 +00000-0 +10613-4 0 04439 2 20580 028.4717 285.4688 0003283 079.4269 280.6769 15.00827500862226 ISS (ZARYA) 1 25544U 98067A 09254.09166161 .00010432 00000-0 75639-4 0 5866 2 25544 051.6382 225.8436 0009301 075.6091 016.5197 15.74058531619484 CXO 1 25867U 99040B 09253.75000000 +.00000077 +00000-0 +10000-3 0 03690 2 25867 065.8245 065.9636 7674289 275.5726 357.4088 00.37800137005337 ____________________________________________________________________ These 2-Line ...Continue Reading

[list_settings.list_name] Current TLEs

September 10th 2009 PST

HST 1 20580U 90037B 09250.43949751 +.00000305 +00000-0 +10613-4 0 04439 2 20580 028.4717 285.4688 0003283 079.4269 280.6769 15.00827500862226 ISS (ZARYA) 1 25544U 98067A 09253.46611830 .00010090 00000-0 73354-4 0 5811 2 25544 051.6388 229.0566 0009161 075.1638 069.8844 15.74044188619388 CXO 1 25867U 99040B 09251.12500000 +.00000149 +00000-0 +10000-3 0 03683 2 25867 065.8074 066.0895 7673341 275.5809 000.0350 00.37807816005329 ____________________________________________________________________ These 2-Line ...Continue Reading
  • This mailing list is a public mailing list - anyone may join or leave, at any time.
  • This mailing list is announce-only.

International Space Station (ISS) / Hubble Space Telescope (HST) / Chandra X-Ray Observatory Orbital Data via EMAIL

Privacy Policy:

Private list